Regional Weather Roundup
Issued by NWS

Home | Current Version | Previous Version | Graphics & Text | Print | Product List | Glossary On
Versions: 1 2 3 4 5 6 7 8 9 10 11 12 13 14 15 16 17 18 19 20 21 22 23 24 25 26 27 28 29 30 31 32 33 34 35 36 37 38 39 40 41 42 43 44 45 46 47 48 49 50
000
ASUS43 KMKX 240811
RWRWI

WISCONSIN REGIONAL WEATHER ROUNDUP
NATIONAL WEATHER SERVICE MILWAUKEE/SULLIVAN WI
200 AM CST MON NOV 24 2014

NOTE: "FAIR" INDICATES FEW OR NO CLOUDS BELOW 12,000 FEET WITH NO
SIGNIFICANT WEATHER AND/OR OBSTRUCTIONS TO VISIBILITY.

WIZ001-002-006>008-014>016-023>028-240900-
NORTHWEST WISCONSIN

CITY           SKY/WX    TMP DP  RH WIND       PRES   REMARKS
SUPERIOR ARPT  RAIN      35  33  92 N9        29.26S WCI  28
ASHLAND        CLOUDY    36  35  96 NW5       29.21F FOG     WCI  32
HAYWARD        LGT SNOW  33  32  96 NW6       29.21S FOG     WCI  28
SIREN          LGT SNOW  34  33  98 N8        29.26S WCI  27
CUMBERLAND     LGT SNOW  32  32 100 NW15      29.21F WCI  22
RICE LAKE      LGT SNOW  33  33  99 NW7       29.22S WCI  27
CHETEK         RAIN      33  33 100 NW7       29.20S WCI  27
LADYSMITH      LGT RAIN  37  36  99 NW14      29.17S WCI  28
EAU CLAIRE     CLOUDY    37  34  89 NW14      29.19R WCI  28
MENOMONIE      DRIZZLE   35  35  99 W14       29.21S WCI  26
NEW RICHMOND   LGT SNOW  32  32 100 NW14G21   29.26S WCI  22
OSCEOLA        LGT SNOW  33  33 100 NW8G16    29.30S WCI  26
$$

WIZ003>005-009-010-017-018-240900-
NORTH CENTRAL WISCONSIN

CITY           SKY/WX    TMP DP  RH WIND       PRES   REMARKS
MANITOWISH WTR DRIZZLE   36  36 100 N8        29.12S WCI  29
ARBOR VITAE    DRIZZLE   39  38  97 N9        29.10F WCI  33
WOODRUFF       DRIZZLE   39  38  97 N9        29.10F WCI  33
RHINELANDER    LGT RAIN  38  38 100 NW6       29.09F FOG     WCI  33
EAGLE RIVER    DRZL/FOG  38  38 100 NW6       29.08F VSB 3/4 WCI  34
LAND O LAKES   FOG       39  39 100 N5        29.10F VSB 1/2
PHILLIPS       DRIZZLE   36  36 100 N7        29.12S WCI  30
TOMAHAWK       RAIN      39  38  98 CALM      29.10S
MEDFORD        DRIZZLE   40  40 100 NW5       29.10S
MERRILL        RAIN      39  39 100 CALM      29.08F VSB 3/4
$$

WIZ029-030-035-036-043>047-240900-
CENTRAL WISCONSIN

CITY           SKY/WX    TMP DP  RH WIND       PRES   REMARKS
WAUSAU         LGT RAIN  41  40  96 NW6       29.07F VSB 3/4
MOSINEE        RAIN      39  39 100 NW3       29.09F VSB 1/2
MARSHFIELD     FOG       42  41  96 W7        29.09F VSB 3/4
STEVENS POINT  RAIN      40  40 100 CALM      29.08F
WAUPACA        DRIZZLE   44  43  97 CALM      29.07F
WAUTOMA        FOG       43  43 100 CALM      29.08S VSB 1/2
WISC RAPIDS    LGT RAIN  42  41  96 SW3       29.10F
CAMP DOUGLAS   CLOUDY    41  41 100 W14       29.11R
$$

WIZ011>013-019>022-031-037>040-048>050-240900-
NORTHEAST WISCONSIN

CITY           SKY/WX    TMP DP  RH WIND       PRES   REMARKS
ANTIGO         DRZL/FOG  37  37 100 N6        29.06F VSB 3/4 WCI  32
SHAWANO        DRZL/FOG  41  40  95 CALM      29.07F VSB 1/2
OCONTO         CLOUDY    41  41 100 CALM      29.05F
STURGEON BAY   CLOUDY    45  43  93 N6        29.05F VSB 3/4
GREEN BAY      LGT RAIN  43  42  97 CALM      29.06F VSB 1/4
MANITOWOC      LGT RAIN  43  43 100 NW5       29.05F FOG
APPLETON       DRZL/FOG  41  41 100 N3        29.06F VSB 1/2
CLINTONVILLE   RAIN      41  41 100 CALM      29.06F
OSHKOSH        LGT RAIN  42  41  96 CALM      29.06F VSB 1/2
$$

WIZ032>034-041-042-053>061-240900-
SOUTHWEST WISCONSIN

CITY           SKY/WX    TMP DP  RH WIND       PRES   REMARKS
LA CROSSE      CLOUDY    39  38  96 NW14      29.17S FOG     WCI  31
SPARTA         CLOUDY    38  38 100 NW8       29.16S WCI  33
VIROQUA        CLOUDY    37  37 100 NW17      29.14R WCI  28
BOSCOBEL       CLOUDY    42  39  89 NW9       29.15R
PRAIRIE DU CHI CLOUDY    40  37  90 NW12G17   29.17S WCI  32
PLATTEVILLE    CLOUDY    41  40  98 NW16G22   29.13R
$$

WIZ056-057-062-063-064-067-068-240900-
SOUTH CENTRAL WISCONSIN

CITY           SKY/WX    TMP DP  RH WIND       PRES   REMARKS
REEDSBURG      CLOUDY    44  44 100 W7        29.09S FOG
BARABOO/DELLS  FOG       44  43  97 W3        29.08S VSB 1/4
LONE ROCK      CLOUDY    49  44  83 W17       29.10S HAZE
MINERAL POINT  CLOUDY    43  41  93 NW10      29.10R FOG
MADISON        CLOUDY    45  44  97 NW3       29.07S FOG
MIDDLETON      CLOUDY    46  46 100 NW3       29.07F
WATERTOWN      DRIZZLE   44  44 100 CALM      29.06S
MONROE         FOG       45  45 100 W8        29.07F VSB 1/2
JANESVILLE     FOG       45  43  93 CALM      29.07S VSB 1/2
$$

WIZ051-052-058>065-066-070>072-240900-
SOUTHEAST WISCONSIN

CITY           SKY/WX    TMP DP  RH WIND       PRES   REMARKS
MILWAUKEE      LGT RAIN  46  44  93 W5        29.05S VSB 3/4
WAUKESHA       DRIZZLE   43  43 100 W3        29.06S
MILWAUKEE/TIMM RAIN      43  41  93 CALM      29.05F
RACINE         LGT RAIN  46  45  96 CALM      29.06S
BURLINGTON     LGT RAIN  44  44 100 CALM      29.06R
KENOSHA        LGT RAIN  46  45  96 W6        29.05S FOG
FOND DU LAC    LGT RAIN  43  41  93 NW3       29.06F VSB 3/4
SHEBOYGAN      LGT RAIN  43  42  97 NW3       29.04F FOG
WEST BEND      DRIZZLE   43  41  93 CALM      29.04F
JUNEAU         DRZL/FOG  42  42  99 NW3       29.07F VSB 1/4
$$

LSZ147-162-240900-
LAKE SUPERIOR

STATION/POSITION TIME  TEMP    WIND        PRES    WAVE
                       AIR SEA DIR/SP/G            HT/PER
                 (UTC) (F)     (DEG/KT/KT) (MB)    (FT/S)
DEVILS ISLAND    0800   38     340/ 15/ 17  989.1F
PORT WING        0740   37     320/ 12/ 14  990.5F
SAXON HARBOR     0700   38     310/  7/  9  989.2F
$$

LMZ867-665-643>646-240900-
LAKE MICHIGAN

STATION/POSITION TIME  TEMP    WIND        PRES    WAVE
                       AIR SEA DIR/SP/G            HT/PER
                 (UTC) (F)     (DEG/KT/KT) (MB)    (FT/S)
CHAMBERS ISLAND  0700   41      10/  6/  8  985.8F
N MID LAKE BUOY  0750   44 42   50/  8/  8  983.8F   2/ 6
NORTHPORT PIER   0700   42      60/  6/  8  985.4F
SISTER BAY       0743          360/  6/  7   N/A
ALGOMA LAKESHORE 0613           CALM  /  3   N/A
KEWAUNEE LAKESHO 0700   44     320/  1/  2  984.0F
SHEBOYGAN LAKESH 0800   45 39  340/  7/  7  983.7F
PORT WASHINGTON  0700   45     320/  4/  6  985.1
MILWAUKEE LAKESH 0700   45     300/  3/  3   N/A
S MID LAKE BUOY  0750   46 42  210/ 10/ 12  983.5F   1/ 3
KENOSHA   LAKESH 0800   46     260/  5/  6  984.4S
$$

TC  - TEMPERATURE IN CELSIUS
VSB - VISIBILITY IN STATUTE MILES
WCI - WIND CHILL INDEX
HX  - HEAT INDEX



USA.gov is the U.S. government's official web portal to all federal, state and local government web resources and services.